Location: ??????
(38.0677°N, 22.9870°E)
Time: 11:35:44
(UTC+00:00)

Cosmos 1378 Rocket - Pass Details

Date: 23 May 2024
Orbit: 599 x 622 km, 82.5° (Epoch: 23 June)

Event Time Altitude Azimuth Distance (km) Brightness Sun altitude
Exits shadow 01:33:13 30° 205° (SSW) 1,087 4.3 -16.5°
Maximum altitude 01:35:13 65° 279° (W) 661 3.5 -16.2°
Drops below altitude 10° 01:39:30 10° 1° (N) 1,947 6.7 -15.6°
Sets 01:41:44 0° 4° (N) 2,856 7.7 -15.3°
